Tracking 28790 objects as of 19-Apr-2024
HD Live streaming from Space Station
objects crossing your sky now

FENGYUN 1C DEB

Track FENGYUN 1C DEB now!
10-day predictions


NORAD ID: 31186
Int'l Code: 1999-025BJQ
Perigee: 844.0 km
Apogee: 881.3 km
Inclination: 99.2 °
Period: 102.0 minutes
Semi major axis: 7233 km
RCS: 0.0179 m2 (small)
Launch date: May 10, 1999
Source: People's Republic of China (PRC)
Launch site: Taiyaun Space Center, China (TSC)

Note: This is SATELLITE DEBRIS
Your satellite tracking list
Your tracking list is empty




NASA's NSSDC Master Catalog

Two Line Element Set (TLE):
1 31186U 99025BJQ 24108.50849598  .00001643  00000-0  93534-3 0  9998
2 31186  99.2099   3.0901 0025786 317.7906 167.1434 14.11138147878025
Source of the keplerian elements: AFSPC